Flag for Canada Weather past 2 weeks in Norfolk, Ontario, Canada

Now
72 °F

Mild.


Feels Like: 77 °F
Forecast: N/A
Wind: 8 mph from Southwest

Location: Delhi CS

Current Time: May 28, 2015 at 7:04:09 PM

Latest Report: May 28, 2015 at 6:00 PM


Visibility: N/A

Pressure: 30.22 "Hg

Humidity: 52%

Dew point: 54 °F

Location of NorfolkLocation

Historic Weather in Norfolk — Graph

°F

Norfolk temperature yesterday

Maximum temperature yesterday: 80 °F (at 4:00 PM)
Minimum temperature yesterday: 60 °F (at 11:00 PM)
Average temperature yesterday: 69 °F

Past Weeks' High & Low Weather Summary

 TemperatureHumidityPressure
High82 °F (May 26, 5:00 PM)100% (May 14, 4:00 AM)30.48 "Hg (May 14, 4:00 AM)
Low27 °F (May 23, 4:00 AM)16% (May 22, 5:00 PM)29.88 "Hg (May 19, 4:00 AM)
Average59 °F64%30.10 "Hg
* Reported May 13 5:00 PM — May 28 5:00 PM, Norfolk, Weather by CustomWeather, © 2015

Note: Actual official high and low records may vary slightly from our data, if they occured in-between our weather recording intervals... More about our weather records

Advertising

Norfolk weather history for previous 24 hours

 ConditionsComfort  
Time TempWeatherWind HumidityBarometerVisibility
5:00 PM
Thu, May 28
76 °FMild.6 mph47%30.22 "HgN/A
4:00 PM75 °FMild.7 mph52%30.23 "HgN/A
3:00 PM73 °FMild.9 mph55%30.24 "HgN/A
2:00 PM72 °FMild.5 mph54%30.25 "HgN/A
1:00 PM73 °FMild.3 mph43%30.24 "HgN/A
12:00 PM70 °FMild.2 mph47%30.24 "HgN/A
11:00 AM67 °FMild.3 mph57%30.24 "HgN/A
10:00 AM65 °FMild.6 mph65%30.22 "HgN/A
9:00 AM62 °FCool.7 mph70%30.21 "HgN/A
8:00 AM59 °FCool.5 mph80%30.20 "HgN/A
7:00 AM56 °FCool.6 mph88%30.18 "HgN/A
6:00 AM55 °FCool.5 mph92%30.16 "HgN/A
5:00 AM56 °FCool.5 mph90%30.12 "HgN/A
4:00 AM56 °FCool.7 mph93%30.10 "HgN/A
3:00 AM60 °FCool.5 mph90%30.08 "HgN/A
2:00 AM60 °FCool.6 mph96%30.05 "HgN/A
1:00 AM61 °FCool.6 mph94%30.03 "HgN/A
12:00 AM61 °FCool.7 mph86%30.02 "HgN/A
11:00 PM
Wed, May 27
60 °FCool.7 mph94%30.01 "HgN/A
10:00 PM61 °FCool.7 mph95%30.01 "HgN/A
9:00 PM62 °FCool.7 mph93%29.98 "HgN/A
8:00 PM63 °FMild.8 mph93%29.98 "HgN/A
7:00 PM64 °FMild.6 mph90%29.97 "HgN/A
Weather by CustomWeather, © 2015

See weather overviewHow to use our weather pages